Location: Zagreb
(45.8000°N, 16.0000°E)
Time: 19:26:04
(UTC+01:00)

deb Explorer IX - Pass Details

Date: 02 October 2020
Orbit: 537 x 1106 km, 38.8° (Epoch: 30 October)

Event Time Altitude Azimuth Distance (km) Brightness Sun altitude
Rises 19:06:28 0° 256° (WSW) 3,104 ? -6.5°
Reaches altitude 10° 19:09:11 10° 248° (WSW) 2,091 ? -7.0°
Maximum altitude 19:13:29 34° 184° (S) 1,010 ? -7.8°
Drops below altitude 10° 19:17:21 10° 118° (ESE) 1,864 ? -8.4°
Enters shadow 19:17:37 - 117° (ESE) 1,959 ? -8.5°
Sets 19:19:38 0° 109° (ESE) 2,718 - -8.8°
